Location: Tierz
(42.1336°N, 0.3549°W)
Time: 05:56:17
(UTC+00:00)

NOSS 3-3 (C) - Pass Details

Date: 29 October 2020
Orbit: 825 x 1387 km, 63.4° (Epoch: 22 November)

Event Time Altitude Azimuth Distance (km) Brightness Sun altitude
Rises 18:01:37 0° 203° (SSW) 3,377 7.3 -12.2°
Reaches altitude 10° 18:03:59 10° 201° (SSW) 2,478 6.5 -12.7°
Maximum altitude 18:09:37 65° 120° (ESE) 998 3.9 -13.7°
Drops below altitude 10° 18:15:56 10° 40° (NE) 2,776 6.0 -14.9°
Enters shadow 18:16:14 - 40° (NE) 2,884 6.1 -14.9°
